This is the latest recevied weather packets stored in our database for station/object W7BL. If no packets are shown the sender has not sent any weather packets the latest 10 day(s).
| Time | Temp. | Humidity | Pressure | Rain* | Wind** | Luminosity | Snow |
|---|---|---|---|---|---|---|---|
| 1778114904 | 23.89° C | 30% | - | 0 mm | - | - | - |
| 1778114601 | 23.89° C | 30% | - | 0 mm | - | - | - |
| 1778114299 | 23.89° C | 30% | - | 0 mm | - | - | - |
| 1778113994 | 23.33° C | 29% | - | 0 mm | - | - | - |
| 1778113689 | 23.89° C | 28% | - | 0 mm | - | - | - |
| 1778113386 | 23.89° C | 29% | - | 0 mm | - | - | - |
| 1778113083 | 23.33° C | 28% | - | 0 mm | - | - | - |
| 1778112780 | 23.89° C | 28% | - | 0 mm | - | - | - |
| 1778112476 | 23.89° C | 34% | - | 0 mm | - | - | - |
| 1778112172 | 23.89° C | 35% | - | 0 mm | - | - | - |
| 1778111869 | 24.44° C | 39% | - | 0 mm | - | - | - |
| 1778111564 | 24.44° C | 39% | - | 0 mm | - | - | - |
| 1778111262 | 24.44° C | 38% | - | 0 mm | - | - | - |
| 1778110958 | 24.44° C | 38% | - | 0 mm | - | - | - |
| 1778110656 | 24.44° C | 39% | - | 0 mm | - | - | - |
| 1778110353 | 24.44° C | 39% | - | 0 mm | - | - | - |
| 1778110050 | 24.44° C | 38% | - | 0 mm | - | - | - |
| 1778109744 | 24.44° C | 41% | - | 0 mm | - | - | - |
| 1778109442 | 25° C | 40% | - | 0 mm | - | - | - |
| 1778109140 | 25° C | 39% | - | 0 mm | - | - | - |
| 1778108836 | 24.44° C | 38% | - | 0 mm | - | - | - |
| 1778108534 | 25° C | 37% | - | 0 mm | - | - | - |
| 1778108230 | 25° C | 36% | - | 0 mm | - | - | - |
| 1778107927 | 25° C | 34% | - | 0 mm | - | - | - |
| 1778107623 | 25.56° C | 30% | - | 0 mm | - | - | - |
* Rain latest hour (hover to see other rain measurements)
** Current wind speed in m/s (hover to see current wind gust speed)